Location: Brad
(46.1333°N, 22.7833°E)
Time: 21:09:18
(UTC+00:00)

Gblst 52 Del rocket - Pass Details

Date: 03 February 2023
Orbit: 805 x 1364 km, 51.5° (Epoch: 22 March)

Event Time Altitude Azimuth Distance (km) Brightness Sun altitude
Rises 16:47:49 0° 248° (WSW) 3,450 9.2 -12.7°
Reaches altitude 10° 16:50:24 10° 249° (WSW) 2,463 8.0 -13.1°
Maximum altitude 16:56:03 77° 336° (NNW) 835 4.2 -14.1°
Enters shadow 16:59:56 20° 61° (ENE) 1,788 5.3 -14.7°
